Wind_Speed
13 13 13 13 13 12 11 11 10 10 9 8 7 7 7 6 6 6 6 6 6 5 6 6 6 6 6 6 6 6 6 6 6 6 6 6 6 5 5 4 4 4 4
14 14 14 14 14 14 13 13 13 12 11 11 10 9 8 8 8 8 8 8 7 7 7 7 7 7 7 7 7 6 6 7 7 7 7 7 6 6 6 5 5 5 5
16 16 16 16 16 16 15 15 15 14 13 13 12 11 11 10 10 10 9 9 9 9 9 9 9 8 8 7 7 7 7 8 8 7 8 8 7 7 7 6 6 6 5
17 17 17 17 17 17 17 17 17 16 16 15 14 14 13 12 12 12 12 11 11 11 11 10 10 10 9 9 8 8 8 9 9 8 8 9 8 8 8 8 7 7 6
19 19 19 19 19 19 19 19 19 18 18 18 17 16 15 15 14 14 14 14 13 13 13 12 12 11 11 11 10 10 9 10 10 10 10 10 10 9 9 9 8 8 7
20 20 20 20 20 20 20 21 21 20 20 20 19 19 18 17 17 17 16 16 15 15 15 14 14 13 13 13 12 12 11 11 11 11 11 11 11 11 10 10 10 9 8
21 21 21 21 22 22 21 21 22 22 22 22 21 21 21 20 19 19 19 18 18 17 17 17 16 16 15 15 14 14 14 13 13 13 12 12 13 13 12 11 11 10 9
22 22 22 22 22 23 23 23 23 23 23 23 23 23 23 23 22 21 21 20 20 19 19 18 18 18 17 17 16 16 16 15 15 15 14 14 14 14 14 13 13 12 11
24 23 23 23 23 23 23 24 24 23 24 24 25 25 25 24 24 23 23 23 22 21 21 21 20 20 20 19 18 18 18 17 17 17 17 16 16 16 16 15 15 14 14
25 25 25 25 24 24 25 25 25 25 25 25 25 26 26 25 25 25 25 25 24 23 23 23 23 22 22 22 21 21 20 19 19 19 18 19 18 18 18 17 17 16 16
27 26 26 26 26 25 26 26 26 26 26 26 27 27 27 27 27 27 27 26 26 25 25 24 24 24 24 23 23 23 23 22 21 21 20 20 20 20 20 19 19 18 18
28 28 28 27 26 26 27 27 27 28 28 28 28 28 29 28 29 28 28 28 28 27 26 25 25 26 25 25 25 25 25 24 23 23 22 22 23 22 22 21 21 20 20
29 29 29 28 28 28 28 28 28 29 29 29 29 30 30 30 30 30 30 30 30 29 28 27 27 27 27 27 27 26 27 26 26 25 25 25 25 24 24 23 23 22 22
30 30 30 30 30 29 30 30 30 30 30 30 30 30 31 32 32 32 32 32 32 31 30 30 30 29 29 29 29 29 29 29 29 28 27 27 26 26 26 26 25 25 24
31 31 31 31 31 31 31 32 32 32 32 31 32 32 32 32 32 33 33 33 33 32 32 31 31 30 30 30 30 30 30 31 31 30 29 29 29 28 29 28 28 27 27
32 32 32 32 32 32 32 33 32 32 32 32 32 33 33 33 33 33 33 33 33 33 33 32 32 32 31 30 31 31 32 32 32 31 31 31 30 30 30 31 30 30 30
32 32 32 32 32 32 32 32 32 32 32 33 33 33 33 33 33 33 33 34 34 34 34 34 33 33 33 33 32 33 33 33 33 33 33 32 32 32 32 32 32 32 32
33 33 32 33 32 32 32 32 32 32 32 33 33 33 33 33 33 34 34 35 35 35 35 35 34 33 34 35 34 34 35 34 34 35 35 34 34 34 34 34 34 34 34
33 33 33 33 32 32 32 32 32 32 33 33 33 34 34 34 34 34 34 35 36 36 36 36 37 36 36 36 36 36 36 36 35 36 36 36 36 36 36 36 36 36 36
34 35 34 33 33 33 33 33 33 33 33 33 33 34 34 34 34 34 34 35 36 37 37 37 37 37 37 37 37 37 37 37 36 36 36 37 37 37 38 38 38 38 38
36 35 34 33 34 34 34 33 33 33 33 33 33 33 34 34 34 35 35 35 36 37 37 37 37 37 37 37 37 37 37 38 37 37 37 38 39 39 39 40 40 40 40
37 36 35 34 34 34 34 34 34 34 34 34 33 33 33 34 35 35 36 36 37 37 38 38 38 38 38 39 39 38 38 38 37 37 37 38 39 39 39 40 41 41 42
38 37 36 35 35 35 35 35 35 35 34 35 34 33 34 34 35 36 37 38 38 38 38 38 38 38 39 39 39 40 39 39 39 39 39 39 39 39 40 40 41 42 42
38 38 37 37 36 36 35 35 35 34 34 35 35 35 35 35 35 36 36 37 38 38 38 38 39 39 40 40 41 41 42 41 42 40 41 41 41 42 42 42 43 43 43
38 38 38 37 37 37 36 36 35 35 35 35 35 35 36 37 37 36 37 37 37 38 39 39 39 40 40 41 41 41 41 41 42 42 42 42 42 43 43 44 44 44 45
39 39 38 38 38 38 37 37 36 36 35 35 35 35 36 36 37 37 38 38 38 39 39 40 40 40 41 41 40 40 40 41 41 42 42 42 42 42 43 43 44 44 45
Wind_Direction
250 249 249 249 250 249 250 250 250 249 249 247 247 248 250 253 254 251 252 247 244 244 241 238 234 233 231 232 233 233 229 227 228 225 226 223 222 222 221 217 212 209 202
251 250 250 250 250 250 251 250 250 249 248 249 248 249 251 253 254 252 252 251 248 246 245 244 241 235 236 236 233 234 235 230 232 230 227 225 225 227 226 222 218 216 215
251 251 250 250 250 251 251 251 251 249 249 250 250 250 250 251 253 253 253 253 250 247 247 247 246 243 240 241 237 240 239 233 233 232 231 229 228 229 227 224 223 223 226
250 251 252 252 251 251 251 251 251 251 251 251 251 251 250 250 252 252 253 253 253 251 248 248 249 247 241 242 241 243 243 236 233 236 233 231 230 230 227 227 227 228 229
252 252 253 254 252 252 252 250 250 252 253 252 251 251 251 251 252 252 253 253 253 252 250 249 249 248 245 245 245 246 246 240 236 239 237 234 232 232 230 229 231 232 234
255 254 254 255 255 254 253 252 251 252 253 253 253 252 252 252 252 251 251 252 253 252 252 250 249 248 248 247 247 247 246 244 242 239 239 237 235 235 236 236 236 239 240
257 256 255 255 255 255 255 254 253 253 252 253 254 254 253 253 252 252 251 251 251 251 252 251 250 249 249 249 249 247 246 245 244 241 239 239 239 238 238 238 238 240 241
257 257 256 256 256 257 256 255 254 254 254 254 255 254 253 253 253 252 251 251 251 251 251 251 252 250 249 249 250 249 246 245 244 243 241 241 242 242 241 242 241 242 244
256 256 256 256 256 256 256 255 255 255 255 256 255 254 253 252 252 252 252 251 251 251 251 252 252 252 250 250 250 249 248 246 246 246 244 242 242 243 243 243 243 244 246
256 256 256 256 256 256 256 255 255 255 256 256 255 254 253 252 251 251 252 252 251 252 252 252 252 252 251 250 250 250 249 248 248 247 247 244 243 244 243 244 245 246 248
257 256 256 256 256 256 256 256 256 256 256 256 255 254 253 252 251 251 251 251 250 251 251 251 252 252 252 250 250 250 249 249 249 248 249 247 245 245 244 245 246 248 250
257 257 256 256 256 256 257 257 257 257 256 255 254 253 253 253 251 250 251 250 249 249 250 250 251 251 251 250 250 249 248 248 249 248 249 248 247 246 246 245 246 247 249
256 256 256 256 257 257 257 258 258 258 257 256 254 253 254 254 252 251 251 250 249 248 249 249 251 252 251 250 250 250 249 248 248 248 249 249 249 247 246 246 246 247 249
257 257 256 256 257 258 258 258 258 258 257 257 255 253 254 254 253 252 252 250 249 248 248 248 251 252 252 251 250 250 249 247 247 247 248 249 250 249 247 246 247 248 249
257 257 257 257 257 258 258 258 258 259 258 257 255 253 253 253 253 253 252 250 249 248 248 249 251 253 254 252 251 250 249 247 247 246 248 249 250 251 249 248 249 249 250
257 258 258 258 258 258 258 258 258 258 258 257 256 254 254 254 253 252 251 249 249 248 249 250 251 252 254 252 250 249 249 248 248 248 248 249 250 252 252 250 250 251 251
257 258 258 258 258 258 258 258 258 258 258 257 256 255 255 254 253 251 250 249 249 248 249 250 250 252 253 252 250 249 248 248 247 248 248 249 251 252 253 252 251 252 252
257 257 259 257 256 257 257 258 258 258 258 257 256 255 255 254 252 250 249 249 249 248 248 249 250 252 253 252 251 250 247 248 248 248 249 250 252 253 254 254 253 253 253
258 258 259 257 256 256 257 257 257 257 257 257 257 257 255 255 253 252 250 249 250 249 249 249 250 252 253 252 251 251 249 248 249 249 249 251 253 254 255 255 255 255 255
257 257 257 256 256 256 257 257 257 257 257 257 257 257 258 257 255 254 252 250 250 250 250 250 251 252 252 251 252 251 250 248 250 250 251 252 253 255 256 256 257 257 257
256 257 256 256 256 257 257 257 258 257 257 256 256 257 258 257 256 256 255 254 252 252 252 252 251 252 252 252 252 252 252 251 250 251 252 253 253 255 256 256 257 257 257
256 256 256 255 256 256 257 256 257 257 257 256 255 257 258 257 256 257 256 255 255 253 252 252 252 252 253 253 253 254 252 252 250 252 253 254 255 256 257 257 257 257 257
255 255 256 255 255 255 256 257 257 257 257 256 257 259 258 258 257 256 256 256 255 254 254 254 253 253 253 254 254 254 253 252 252 252 253 253 254 255 257 258 258 258 258
254 254 255 255 254 255 255 256 257 258 257 257 257 259 259 258 258 258 257 257 256 255 254 255 255 254 254 255 255 255 254 254 254 252 254 254 255 256 257 258 258 259 259
253 253 254 254 254 254 254 255 256 257 258 258 258 260 260 260 259 260 259 259 258 256 255 254 255 256 255 255 255 255 255 255 255 255 255 255 256 257 259 259 260 260 260
252 253 253 253 253 253 253 254 254 255 257 258 259 261 262 261 260 260 260 259 258 257 256 255 255 257 256 256 255 255 256 255 255 255 256 256 257 258 259 261 261 261 260
Height
5835 5836 5837 5837 5838 5839 5840 5841 5842 5843 5844 5845 5846 5846 5847 5848 5849 5850 5851 5852 5852 5853 5854 5855 5856 5857 5858 5859 5860 5861 5862 5863 5863 5864 5865 5866 5867 5867 5868 5868 5869 5870 5870
5833 5833 5834 5835 5836 5837 5838 5839 5840 5841 5842 5843 5844 5845 5846 5846 5847 5848 5849 5850 5851 5852 5853 5854 5855 5855 5857 5858 5859 5860 5861 5862 5863 5863 5864 5865 5866 5866 5867 5868 5868 5869 5870
5829 5830 5831 5832 5833 5834 5835 5836 5837 5838 5840 5841 5842 5843 5844 5845 5846 5846 5847 5848 5849 5850 5852 5853 5853 5854 5855 5856 5857 5859 5859 5860 5861 5862 5863 5864 5865 5865 5866 5867 5868 5868 5869
5826 5827 5828 5829 5830 5831 5832 5833 5834 5835 5837 5838 5839 5840 5841 5842 5843 5844 5845 5846 5847 5848 5850 5851 5852 5852 5853 5855 5856 5857 5858 5859 5860 5861 5862 5863 5863 5864 5865 5866 5867 5867 5868
5822 5823 5824 5825 5826 5827 5828 5829 5831 5832 5833 5834 5836 5837 5838 5839 5841 5842 5843 5844 5845 5846 5847 5849 5850 5851 5852 5853 5854 5855 5856 5857 5858 5859 5860 5861 5862 5863 5863 5864 5865 5866 5867
5818 5819 5820 5821 5822 5823 5824 5825 5827 5828 5829 5831 5832 5833 5835 5836 5837 5838 5840 5841 5842 5843 5845 5846 5847 5849 5850 5851 5852 5853 5854 5855 5856 5857 5858 5859 5860 5861 5862 5862 5863 5864 5865
5814 5815 5816 5817 5818 5819 5820 5821 5822 5824 5825 5826 5828 5829 5830 5832 5833 5835 5836 5837 5839 5840 5842 5843 5844 5846 5847 5848 5849 5850 5851 5853 5854 5855 5856 5857 5858 5859 5860 5860 5861 5862 5863
5809 5810 5811 5812 5813 5814 5815 5816 5818 5819 5820 5822 5823 5824 5826 5827 5829 5830 5832 5833 5835 5836 5838 5840 5841 5842 5844 5845 5846 5847 5849 5850 5851 5852 5853 5854 5855 5856 5857 5858 5859 5860 5861
5804 5805 5806 5807 5808 5809 5810 5811 5813 5814 5815 5817 5818 5819 5820 5822 5824 5825 5827 5828 5830 5832 5834 5835 5837 5838 5840 5841 5843 5844 5845 5847 5848 5849 5850 5851 5852 5854 5855 5856 5857 5858 5859
5799 5800 5801 5802 5803 5804 5805 5806 5807 5808 5810 5811 5812 5813 5815 5817 5818 5820 5822 5823 5825 5827 5829 5831 5832 5834 5836 5837 5839 5840 5841 5843 5844 5846 5847 5848 5849 5850 5851 5853 5854 5855 5856
5793 5794 5795 5796 5797 5798 5799 5800 5801 5802 5803 5805 5806 5807 5809 5811 5812 5814 5816 5818 5820 5822 5824 5826 5827 5829 5831 5832 5834 5836 5837 5839 5840 5841 5843 5844 5845 5847 5848 5849 5851 5852 5853
5787 5788 5789 5790 5791 5792 5793 5794 5795 5796 5797 5798 5800 5801 5803 5805 5806 5808 5810 5811 5814 5816 5818 5820 5822 5824 5825 5827 5829 5830 5832 5834 5835 5837 5838 5840 5841 5842 5844 5845 5847 5848 5849
5780 5781 5782 5783 5784 5785 5786 5787 5788 5789 5790 5791 5793 5794 5796 5798 5799 5801 5803 5805 5807 5810 5812 5814 5816 5817 5819 5821 5823 5825 5827 5828 5830 5832 5833 5835 5836 5838 5839 5841 5842 5844 5845
5774 5775 5776 5776 5777 5778 5779 5780 5781 5782 5783 5784 5786 5787 5789 5791 5792 5794 5796 5798 5801 5803 5805 5808 5809 5811 5813 5815 5817 5818 5820 5822 5824 5826 5828 5830 5831 5832 5834 5836 5837 5839 5840
5766 5767 5768 5769 5770 5771 5772 5773 5773 5774 5775 5777 5778 5780 5781 5783 5785 5787 5789 5791 5794 5796 5799 5801 5803 5805 5806 5808 5810 5812 5814 5816 5818 5820 5822 5824 5825 5827 5828 5830 5832 5833 5835
5759 5760 5761 5762 5762 5763 5764 5764 5765 5766 5768 5769 5770 5772 5774 5776 5777 5779 5781 5784 5786 5789 5791 5794 5796 5798 5799 5801 5803 5805 5807 5809 5811 5813 5815 5817 5819 5821 5822 5824 5825 5827 5829
5750 5752 5753 5753 5754 5755 5756 5756 5757 5758 5760 5761 5763 5765 5766 5768 5769 5771 5774 5776 5779 5781 5784 5786 5788 5790 5792 5794 5796 5798 5800 5802 5804 5806 5808 5810 5812 5814 5816 5817 5819 5820 5822
5742 5743 5744 5745 5746 5747 5748 5749 5750 5751 5752 5753 5755 5757 5758 5759 5761 5763 5766 5768 5771 5773 5776 5778 5780 5782 5784 5786 5788 5790 5792 5794 5796 5798 5801 5803 5805 5807 5808 5810 5811 5813 5815
5734 5735 5736 5737 5738 5739 5740 5741 5742 5743 5745 5746 5747 5749 5750 5751 5753 5755 5758 5760 5763 5765 5767 5770 5772 5774 5776 5778 5780 5782 5784 5786 5788 5790 5793 5795 5797 5799 5800 5802 5804 5806 5807
5725 5726 5727 5728 5730 5731 5732 5733 5735 5736 5737 5738 5740 5741 5742 5743 5745 5747 5749 5752 5754 5757 5759 5761 5764 5766 5768 5769 5771 5773 5776 5778 5780 5782 5785 5787 5789 5790 5792 5794 5795 5797 5799
5716 5718 5719 5720 5722 5723 5724 5726 5727 5728 5729 5730 5732 5733 5735 5736 5738 5740 5742 5744 5746 5748 5750 5752 5755 5757 5759 5760 5763 5765 5768 5770 5772 5774 5776 5778 5780 5781 5783 5785 5786 5788 5789
5707 5709 5710 5712 5713 5715 5716 5717 5719 5720 5721 5722 5723 5725 5726 5728 5729 5731 5733 5735 5737 5739 5741 5743 5746 5748 5750 5751 5754 5756 5759 5762 5763 5766 5767 5769 5771 5772 5774 5775 5777 5778 5779
5698 5700 5701 5703 5705 5706 5708 5709 5710 5712 5713 5715 5716 5717 5718 5719 5721 5723 5725 5726 5728 5730 5732 5734 5736 5739 5741 5742 5744 5747 5750 5752 5755 5757 5759 5760 5761 5763 5764 5765 5767 5768 5769
5688 5690 5692 5694 5696 5697 5699 5701 5703 5704 5706 5707 5708 5709 5710 5711 5713 5714 5715 5717 5718 5720 5722 5725 5727 5729 5731 5733 5735 5737 5740 5742 5745 5747 5749 5750 5752 5753 5754 5755 5757 5757 5759
5678 5680 5682 5685 5687 5688 5690 5692 5694 5696 5697 5698 5699 5700 5701 5703 5704 5705 5706 5708 5709 5711 5713 5715 5717 5719 5721 5723 5726 5727 5729 5731 5733 5736 5738 5740 5741 5742 5743 5745 5746 5747 5748
5669 5671 5673 5675 5677 5679 5681 5683 5685 5687 5689 5690 5691 5692 5693 5694 5695 5696 5697 5698 5700 5701 5703 5705 5707 5709 5711 5713 5715 5717 5719 5721 5723 5725 5727 5729 5730 5732 5733 5734 5735 5736 5737